map of AZA home
Great Circle Mapper logo
AZA - Airport
Location
City:  Phoenix, Arizona, United States
Name:Phoenix-Mesa Gateway Airport
Old (Alt.):Williams Gateway
ICAO / IATA:KIWA / AZA
FAA:IWA

Details
Type:Airport (Part 139 Class I)
Use:Public/Civil
Latitude:3318'28"N (33.307833)
Longitude:11139'20"W (-111.655471)
Datum:WGS 1984
Elevation:1383 ft (422 m)
Variation:10.44E (WMM2015 magnetic declination)
-0.09 annual change
Runways:3
Longest:10401 × 150 ft (3170 × 45.5 m), paved

Time
Time Zone:UTC-7
Local Time:

Weather
METAR:KIWA 061947Z 09013G20KT 45SM SKC 24/M09 A3010
TAF:KIWA 061720Z 0618/0718 08015KT P6SM SKC
FM070100 07007KT P6SM SKC
FM071200 12004KT P6SM SKC

Related Locations
Nearby:
Farthest:RRG: 11449 mi / 18426 km
Plaine Corail, Rodrigues Island, MU

Find:

   beyond  
but within

Other Information
Maps:
NOTAMs:
Links:
Sources:

  
flag of United States
flag of Arizona
flag of Phoenix
  

Airport Diagram

Airport diagram for AZA

Airport diagram PDF

Sectional Chart

Flight Planning
at skyvector.com

Satellite Image

Google Maps Satellite View

 

Copyright © 2004-2015 Karl L. Swartz. All rights reserved.
The Great Circle Mapper name and logo are trademarks of the Great Circle Mapper.
All other trademarks mentioned herein belong to their respective owners.
Please see credits for attibutions and further copyright information.

  Follow gcmap on Facebook Follow gcmap on Twitter Follow gcmap on Google+

hCard Microformat

Geo Microformat